Weather History for Truckee-Tahoe, CA

Change the Weather History Date:

Saturday, November 16, 2013

  Actual Average Record
Temperature  
Mean Temperature 34 °F -  
Max Temperature 46 °F 47 °F 66 °F (2008)
Min Temperature 21 °F 23 °F 5 °F (1961)
Degree Days  
Heating Degree Days 32    
Moisture  
Dew Point 23 °F    
Average Humidity 76    
Maximum Humidity 93    
Minimum Humidity 37    
Precipitation  
Precipitation 0.00 in - - ()
Sea Level Pressure  
Sea Level Pressure 29.84 in    
Wind  
Wind Speed 4 mph (SSW)    
Max Wind Speed 15 mph    
Max Gust Speed 22 mph    
Visibility 8 miles    
Events      
Averages and records for this station are not official NWS values.
T = Trace of Precipitation, MM = Missing Value Source: NWS Daily Summary

Daily Weather History Graph

Daily Weather History Graph

Search for Another Location

Airport:

Trip Planner

Search our weather history database for the weather conditions in past years. The results will help you decide how hot, cold, wet, or windy it might be!

Date:

Astronomy

Nov. 16, 2013 Rise Set
Actual Time 6:45 AM PST 4:44 PM PST
Civil Twilight 6:16 AM PST 5:13 PM PST
Nautical Twilight 5:44 AM PST 5:46 PM PST
Astronomical Twilight 5:12 AM PST 6:17 PM PST
Moon 4:23 PM PST 5:47 AM PST
Length of Visible Light 10h 56m
Length of Day
9h 59m
Waxing Gibbous, 99% of the Moon is Illuminated
Nov 16
Waxing Gibbous
Nov 17
Full
Nov 25
Last Quarter
Dec 2
New
Dec 9
First Quarter

Hourly Weather History & Observations

Time (PST) Temp. Windchill Dew Point Humidity Pressure Visibility Wind Dir Wind Speed Gust Speed Precip Events Conditions
12:15 AM 23.0 °F 17.0 °F 21.2 °F 93% 29.78 in 5.0 mi South 4.6 mph - N/A   Scattered Clouds
12:35 AM 24.8 °F 19.1 °F 23.0 °F 93% 29.78 in 8.0 mi ESE 4.6 mph - N/A   Mostly Cloudy
12:55 AM 23.0 °F 17.0 °F 21.2 °F 93% 29.76 in 8.0 mi South 4.6 mph - N/A   Mostly Cloudy
1:15 AM 24.8 °F - 23.0 °F 93% 29.75 in 5.0 mi Calm Calm - N/A   Partly Cloudy
1:35 AM 26.6 °F - 24.8 °F 93% 29.76 in 3.0 mi Calm Calm - N/A   Clear
1:55 AM 26.6 °F - 23.0 °F 86% 29.76 in 5.0 mi Calm Calm - N/A   Clear
2:15 AM 26.6 °F 22.6 °F 23.0 °F 86% 29.78 in 4.0 mi South 3.5 mph - N/A   Scattered Clouds
2:35 AM 23.0 °F 17.0 °F 21.2 °F 93% 29.77 in 7.0 mi South 4.6 mph - N/A   Mostly Cloudy
2:55 AM 26.6 °F - 23.0 °F 86% 29.77 in 8.0 mi Calm Calm - N/A   Partly Cloudy
3:15 AM 28.4 °F 24.6 °F 24.8 °F 86% 29.76 in 1.8 mi South 3.5 mph - N/A   Haze
3:35 AM 28.4 °F - 23.0 °F 80% 29.76 in 2.0 mi Calm Calm - N/A   Haze
3:55 AM 30.2 °F 24.3 °F 24.8 °F 80% 29.76 in 7.0 mi North 5.8 mph - N/A   Overcast
4:15 AM 32.0 °F 28.7 °F 24.8 °F 75% 29.76 in 10.0 mi North 3.5 mph - N/A   Overcast
4:35 AM 30.2 °F 26.7 °F 24.8 °F 80% 29.77 in 1.2 mi ENE 3.5 mph - N/A   Haze
4:55 AM 30.2 °F - 24.8 °F 80% 29.77 in 9.0 mi Calm Calm - N/A   Overcast
5:15 AM 28.4 °F 23.3 °F 24.8 °F 86% 29.77 in 10.0 mi SSW 4.6 mph - N/A   Overcast
5:35 AM 32.0 °F 24.8 °F 26.6 °F 80% 29.76 in 3.0 mi West 8.1 mph - N/A   Haze
6:45 AM 35.6 °F - 23.0 °F 60% 29.78 in 10.0 mi Calm Calm - N/A   Overcast
7:50 AM 35.6 °F - 23.0 °F 60% 29.81 in 10.0 mi Calm Calm - N/A   Mostly Cloudy
8:45 AM 39.2 °F 37.0 °F 19.4 °F 45% 29.81 in - East 3.5 mph - N/A   Mostly Cloudy
9:55 AM 44.6 °F 38.8 °F 19.4 °F 37% 29.81 in 10.0 mi West 11.5 mph 16.1 mph N/A   Scattered Clouds
11:55 AM 44.6 °F 37.8 °F 23.0 °F 43% 29.83 in 10.0 mi West 15.0 mph 21.9 mph N/A   Scattered Clouds
12:50 PM 46.4 °F 40.7 °F 23.0 °F 40% 29.82 in 10.0 mi WSW 12.7 mph 19.6 mph N/A   Partly Cloudy
1:50 PM 46.4 °F 41.5 °F 24.8 °F 43% 29.82 in 10.0 mi SW 10.4 mph 20.7 mph N/A   Partly Cloudy
2:50 PM 46.4 °F 41.1 °F 26.6 °F 46% 29.82 in 10.0 mi West 11.5 mph - N/A   Partly Cloudy
3:50 PM 44.6 °F 39.7 °F 26.6 °F 49% 29.83 in 10.0 mi West 9.2 mph - N/A   Clear
4:45 PM 39.2 °F 34.2 °F 26.6 °F 61% 29.85 in 10.0 mi ENE 6.9 mph - N/A   Partly Cloudy
4:55 PM 39.2 °F 35.9 °F 26.6 °F 61% 29.85 in 10.0 mi West 4.6 mph - N/A   Clear
5:15 PM 39.2 °F 33.6 °F 26.6 °F 61% 29.85 in 10.0 mi West 8.1 mph - N/A   Clear
5:35 PM 39.2 °F 33.6 °F 26.6 °F 61% 29.86 in 10.0 mi West 8.1 mph - N/A   Clear
5:55 PM 37.4 °F 33.8 °F 24.8 °F 60% 29.87 in 10.0 mi South 4.6 mph - N/A   Clear
6:15 PM 32.0 °F 26.4 °F 24.8 °F 75% 29.88 in 10.0 mi SSE 5.8 mph - N/A   Clear
6:35 PM 32.0 °F - 24.8 °F 75% 29.89 in 10.0 mi Calm Calm - N/A   Clear
6:55 PM 32.0 °F 28.7 °F 24.8 °F 75% 29.90 in 10.0 mi SSE 3.5 mph - N/A   Clear
7:15 PM 28.4 °F 23.3 °F 23.0 °F 80% 29.91 in 10.0 mi SE 4.6 mph - N/A   Clear
7:35 PM 26.6 °F 21.2 °F 21.2 °F 80% 29.91 in 10.0 mi SSE 4.6 mph - N/A   Clear
7:55 PM 28.4 °F - 23.0 °F 80% 29.91 in 10.0 mi Calm Calm - N/A   Clear
8:15 PM 26.6 °F - 23.0 °F 86% 29.92 in 10.0 mi Calm Calm - N/A   Clear
8:35 PM 23.0 °F 15.8 °F 19.4 °F 86% 29.92 in 10.0 mi SW 5.8 mph - N/A   Clear
8:55 PM 26.6 °F 21.2 °F 23.0 °F 86% 29.93 in 10.0 mi SE 4.6 mph - N/A   Clear
9:15 PM 26.6 °F 21.2 °F 23.0 °F 86% 29.93 in 10.0 mi SSW 4.6 mph - N/A   Clear
9:35 PM 24.8 °F 20.5 °F 21.2 °F 86% 29.94 in 10.0 mi SSW 3.5 mph - N/A   Clear
9:55 PM 24.8 °F 19.1 °F 21.2 °F 86% 29.95 in 10.0 mi South 4.6 mph - N/A   Clear
10:15 PM 24.8 °F - 23.0 °F 93% 29.95 in 10.0 mi Calm Calm - N/A   Clear
10:35 PM 26.6 °F - 23.0 °F 86% 29.95 in 10.0 mi Calm Calm - N/A   Clear
10:55 PM 23.0 °F - 21.2 °F 93% 29.96 in 10.0 mi Calm Calm - N/A   Clear
11:15 PM 24.8 °F 20.5 °F 21.2 °F 86% 29.97 in 10.0 mi ENE 3.5 mph - N/A   Clear
11:35 PM 21.2 °F - 17.6 °F 86% 29.97 in 10.0 mi Calm Calm - N/A   Clear
11:55 PM 23.0 °F - 21.2 °F 93% 29.97 in 10.0 mi Calm Calm - N/A   Clear